Weather in Vistino

Russia / Saint-Petersburg and Leningrad Oblast     59°46′25″N   28°28′20″E
temp.,
°C
wind,
m/s
gust,
m/s
humid.,
%
clouds,
%
prec.,
mm/h
press.,
hPa
HPBL,
m
27 september, mon
mon2700:00+8nne348765 0.0 102687
03:00+8ne239049 0.0 102764
06:00+7ne229219 0.0 102958
09:00+9ne24865 0.0 1030225
12:00+12ne23695 0.0 1031529
15:00+13nne33654 0.0 1031571
18:00+11ne24771 0.0 1031120
21:00+9e35865 0.0 1031102
28 september, tue
tue2800:00+7ese24915 0.0 103285
03:00+6ese23910 0.0 103254
06:00+6ese22930 0.0 103344
09:00+8ese24830 0.0 1033141
12:00+13ese34631 0.0 1033709
15:00+14e345511 0.0 1033990
18:00+12ese236826 0.0 103344
21:00+10se267484 0.0 1034104
29 september, wed
wed2900:00+10sse2577100 0.0 1036174
03:00+9sse267474 0.0 1036229
06:00+6sse35825 0.0 1036100
09:00+9sse367021 0.0 1036197
12:00+12s345551 0.0 10361015
15:00+13s135271 0.0 10351081
18:00+11ene226948 0.0 103557
21:00+7sse35778 0.0 1035100
30 september, thu
thu3000:00+6sse378317 0.0 1035143
03:00+5sse37865 0.0 1035138
06:00+5sse37895 0.0 1035138
09:00+6sse37796 0.0 1034216
12:00+11sse46565 0.0 1033694
15:00+13sse46465 0.0 1032891
18:00+11sse37585 0.0 1031221
21:00+8sse411745 0.0 1031299
1 october, fri
fri100:00+6sse411806 0.0 1031270
03:00+6sse411825 0.0 1030254
06:00+5sse4118497 0.0 1029257
09:00+7sse51178100 0.0 1029313
12:00+10s5969100 0.0 1028469
15:00+11s3968100 0.1 1028643
18:00+10s41069100 0.1 1027725
21:00+10ssw41172100 0.1 1026698